Williamstown, MA

7:22 AM EDT on September 28, 2016 (GMT -0400)
Harriman And West

Weather History for KAQW - October, 2013

Change the Weather History Date:

Wednesday, October 23, 2013

  Actual Average Record
Temperature  
Mean Temperature 39 °F -  
Max Temperature 48 °F 54 °F 73 °F (2007)
Min Temperature 30 °F 34 °F 24 °F (2000)
Degree Days  
Heating Degree Days 26    
Moisture  
Dew Point 30 °F    
Average Humidity 69    
Maximum Humidity 96    
Minimum Humidity 41    
Precipitation  
Precipitation 0.00 in - - ()
Sea Level Pressure  
Sea Level Pressure 29.73 in    
Wind  
Wind Speed 2 mph (West)    
Max Wind Speed 9 mph    
Max Gust Speed -    
Visibility 10 miles    
Events      
Averages and records for this station are not official NWS values.
T = Trace of Precipitation, MM = Missing Value Source: NWS Daily Summary

Daily Weather History Graph

Daily Weather History Graph

Search for Another Location

Airport or City:

Trip Planner

Search our weather history database for the weather conditions in past years. The results will help you decide how hot, cold, wet, or windy it might be!

Date:

Astronomy

Oct. 23, 2013 Rise Set
Actual Time 7:15 AM EDT 5:57 PM EDT
Civil Twilight 6:46 AM EDT 6:26 PM EDT
Nautical Twilight 6:13 AM EDT 6:59 PM EDT
Astronomical Twilight 5:41 AM EDT 7:31 PM EDT
Moon 9:22 PM EDT (10/23) 11:34 AM EDT (10/23)
Length of Visible Light 11h 39m
Length of Day
10h 41m
Waning Gibbous, 79% of the Moon is Illuminated
Oct 23
Waning Gibbous
Oct 26
Last Quarter
Nov 3
New
Nov 10
First Quarter
Nov 17
Full

Hourly Weather History & Observations

Time (EDT) Temp. Windchill Dew Point Humidity Pressure Visibility Wind Dir Wind Speed Gust Speed Precip Events Conditions
12:52 AM 34.0 °F 28.8 °F 30.9 °F 89% 29.82 in 10.0 mi NW 5.8 mph - N/A   Clear
1:52 AM 34.0 °F 31.0 °F 32.0 °F 92% 29.82 in 10.0 mi NW 3.5 mph - N/A   Clear
2:52 AM 36.0 °F - 32.0 °F 86% 29.83 in 10.0 mi Calm Calm - N/A   Clear
3:52 AM 34.0 °F - 30.9 °F 89% 29.80 in 10.0 mi Calm Calm - N/A   Clear
4:52 AM 32.0 °F - 30.0 °F 92% 29.79 in 8.0 mi Calm Calm - N/A   Clear
5:52 AM 32.0 °F - 28.9 °F 88% 29.78 in 10.0 mi Calm Calm - N/A   Clear
6:52 AM 30.0 °F - 28.0 °F 92% 29.78 in 9.0 mi Calm Calm - N/A   Clear
7:52 AM 30.0 °F - 28.9 °F 96% 29.80 in 9.0 mi Calm Calm - N/A   Clear
8:52 AM 35.1 °F - 30.9 °F 85% 29.79 in 10.0 mi Calm Calm - N/A   Clear
10:52 AM 43.0 °F - 32.0 °F 65% 29.76 in 10.0 mi Calm Calm - N/A   Mostly Cloudy
11:52 AM 45.0 °F 43.5 °F 28.9 °F 53% 29.75 in 10.0 mi SW 3.5 mph - N/A   Mostly Cloudy
12:52 PM 46.9 °F - 28.9 °F 50% 29.71 in 10.0 mi Calm Calm - N/A   Partly Cloudy
1:52 PM 48.0 °F - 28.9 °F 48% 29.65 in 10.0 mi Calm Calm - N/A   Scattered Clouds
2:52 PM 48.0 °F - 28.0 °F 46% 29.62 in 10.0 mi Variable 4.6 mph - N/A   Overcast
3:52 PM 48.9 °F - 26.1 °F 41% 29.64 in 10.0 mi Variable 3.5 mph - N/A   Overcast
4:52 PM 48.0 °F - 28.9 °F 48% 29.65 in 10.0 mi Calm Calm - N/A   Overcast
5:52 PM 46.0 °F - 30.9 °F 56% 29.65 in 10.0 mi Calm Calm - N/A   Overcast
6:52 PM 44.1 °F - 32.0 °F 63% 29.66 in 10.0 mi Calm Calm - N/A   Overcast
7:52 PM 44.1 °F 40.8 °F 28.0 °F 53% 29.67 in 10.0 mi West 5.8 mph - N/A   Mostly Cloudy
8:52 PM 42.1 °F - 30.0 °F 62% 29.67 in 10.0 mi Calm Calm - N/A   Overcast
9:52 PM 42.1 °F - 32.0 °F 67% 29.69 in 10.0 mi Calm Calm - N/A   Overcast
10:52 PM 44.1 °F 40.8 °F 30.0 °F 58% 29.70 in 10.0 mi West 5.8 mph - N/A   Overcast
11:52 PM 43.0 °F 37.7 °F 30.0 °F 60% 29.70 in 10.0 mi West 9.2 mph - N/A   Overcast